This is the latest recevied weather packets stored in our database for station/object SV2BZQ-2. If no packets are shown the sender has not sent any weather packets the latest 1 day(s).
| Time | Temp. | Humidity | Pressure | Rain* | Wind** | Luminosity | Snow |
|---|---|---|---|---|---|---|---|
| 1777997660 | 26.11° C | 42% | 1011 hPa | 0 mm | 1.79 m/s, 139° | 151 W/m² | - |
| 1777997540 | 26.11° C | 42% | 1010.9 hPa | 0 mm | 1.79 m/s, 154° | 171 W/m² | - |
| 1777997423 | 26.11° C | 42% | 1010.9 hPa | 0 mm | 1.79 m/s, 156° | 176 W/m² | - |
| 1777997297 | 26.11° C | 42% | 1011 hPa | 0 mm | 2.24 m/s, 194° | 181 W/m² | - |
| 1777997176 | 26.67° C | 41% | 1010.8 hPa | 0 mm | 1.79 m/s, 209° | 188 W/m² | - |
| 1777997058 | 26.67° C | 42% | 1010.9 hPa | 0 mm | 2.24 m/s, 184° | 193 W/m² | - |
| 1777996941 | 26.67° C | 41% | 1010.9 hPa | 0 mm | 2.24 m/s, 151° | 199 W/m² | - |
| 1777996822 | 26.67° C | 41% | 1010.8 hPa | 0 mm | 2.24 m/s, 161° | 206 W/m² | - |
| 1777996734 | 26.67° C | 42% | 1010.8 hPa | 0 mm | 2.24 m/s, 13° | 211 W/m² | - |
| 1777996601 | 26.67° C | 41% | 1011 hPa | 0 mm | 2.24 m/s, 196° | 218 W/m² | - |
| 1777996494 | 26.67° C | 41% | 1011 hPa | 0 mm | 2.24 m/s, 173° | 227 W/m² | - |
| 1777996409 | 26.67° C | 41% | 1011 hPa | 0 mm | 2.24 m/s, 204° | 232 W/m² | - |
| 1777996287 | 26.67° C | 41% | 1011 hPa | 0 mm | 2.24 m/s, 148° | 241 W/m² | - |
| 1777996190 | 26.67° C | 41% | 1010.9 hPa | 0 mm | 2.24 m/s, 163° | 246 W/m² | - |
| 1777996063 | 26.67° C | 41% | 1010.9 hPa | 0 mm | 2.24 m/s, 186° | 251 W/m² | - |
| 1777995979 | 26.67° C | 40% | 1010.9 hPa | 0 mm | 2.68 m/s, 191° | 258 W/m² | - |
| 1777995745 | 26.67° C | 41% | 1011 hPa | 0 mm | 2.24 m/s, 161° | 264 W/m² | - |
| 1777995654 | 26.67° C | 41% | 1011 hPa | 0 mm | 2.68 m/s, 149° | 271 W/m² | - |
| 1777995546 | 27.22° C | 41% | 1011 hPa | 0 mm | 2.24 m/s, 171° | 279 W/m² | - |
| 1777995448 | 27.22° C | 41% | 1011 hPa | 0 mm | 2.68 m/s, 150° | 285 W/m² | - |
| 1777995364 | 27.22° C | 41% | 1011 hPa | 0 mm | 2.24 m/s, 182° | 288 W/m² | - |
| 1777995285 | 27.22° C | 42% | 1011.1 hPa | 0 mm | 2.24 m/s, 215° | 299 W/m² | - |
| 1777995210 | 27.22° C | 42% | 1011.1 hPa | 0 mm | 2.24 m/s, 148° | 304 W/m² | - |
| 1777995134 | 27.22° C | 42% | 1011.2 hPa | 0 mm | 2.24 m/s, 196° | 309 W/m² | - |
| 1777994917 | 27.22° C | 41% | 1011.1 hPa | 0 mm | 2.24 m/s, 178° | 316 W/m² | - |
* Rain latest hour (hover to see other rain measurements)
** Current wind speed in m/s (hover to see current wind gust speed)